Flag Weather past 2 weeks in Slough, England, United Kingdom

Now
54 °F

Rain. Partly cloudy.


Feels Like: 54 °F
Forecast: 42 / 54 °F
Wind: 2 mph from North

Location: London City Airport

Current Time: Nov 23, 2014 at 5:00:32 AM

Latest Report: Nov 23, 2014 at 4:20 AM


Visibility: 4 mi

Pressure: 29.95 "Hg

Humidity: 94%

Dew point: 52 °F

Location of SloughLocation

Historic Weather in Slough — Graph

°F

Slough temperature yesterday

Maximum temperature yesterday: 59 °F (at 2:50 PM)
Minimum temperature yesterday: 52 °F (at 12:20 AM)
Average temperature yesterday: 55 °F

Past Weeks' High & Low Weather Summary

 TemperatureHumidityPressure
High59 °F (Nov 14, 2:20 PM)100% (Nov 9, 4:50 AM)30.27 "Hg (Nov 9, 4:50 AM)
Low43 °F (Nov 21, 2:50 AM)51% (Nov 9, 2:50 PM)29.33 "Hg (Nov 12, 12:50 AM)
Average51 °F86%29.71 "Hg
* Reported Nov 8 3:20 AM — Nov 23 3:50 AM, Slough, Weather by CustomWeather, © 2014

Note: Actual official high and low records may vary slightly from our data, if they occured in-between our weather recording intervals... More about our weather records

Advertising

Slough weather history for previous 24 hours

 ConditionsComfort  
Time TempWeatherWind HumidityBarometerVisibility
3:50 AM
Nov 23
54 °FHeavy rain. Partly cloudy.5 mph94%29.95 "Hg5 mi
3:20 AM54 °FHeavy rain. Partly cloudy.5 mph94%29.95 "Hg4 mi
2:50 AM54 °FRain. Passing clouds.8 mph100%29.95 "Hg4 mi
2:20 AM55 °FFog.3 mph100%29.95 "Hg1 mi
1:50 AM57 °FFog.2 mph94%29.95 "Hg1 mi
1:20 AM57 °FFog.3 mph94%29.95 "Hg1 mi
12:50 AM57 °FFog.3 mph94%29.98 "Hg1 mi
12:20 AM57 °FFog.2 mph94%29.98 "Hg1 mi
11:50 PM
Nov 22
57 °FSprinkles. Passing clouds.2 mph94%29.98 "Hg1 mi
11:20 PM57 °FFog.3 mph94%29.98 "Hg1 mi
10:50 PM57 °FFog.2 mph94%29.98 "Hg1 mi
10:20 PM57 °FFog.2 mph94%29.98 "Hg1 mi
9:50 PM57 °FFog.3 mph94%29.98 "Hg3 mi
9:20 PM57 °FLight rain. Passing clouds.No wind94%29.98 "Hg2 mi
8:50 PM57 °FPassing clouds.3 mph94%29.98 "Hg4 mi
8:20 PM57 °FPartly cloudy.3 mph94%29.98 "Hg4 mi
7:50 PM57 °FPassing clouds.5 mph94%29.95 "Hg4 mi
7:20 PM57 °FFog.5 mph94%29.95 "Hg3 mi
6:50 PM57 °FFog.5 mph94%29.95 "Hg3 mi
6:20 PM57 °FPassing clouds.3 mph94%29.95 "Hg4 mi
5:50 PM57 °FPassing clouds.3 mph94%29.95 "Hg4 mi
5:20 PM57 °FPassing clouds.3 mph94%29.95 "Hg6 mi
4:50 PM57 °FFog.2 mph94%29.95 "Hg3 mi
4:20 PM57 °FLow clouds.3 mph94%29.95 "Hg4 mi
3:50 PM57 °FLow clouds.3 mph94%29.92 "HgN/A
3:20 PM57 °FSprinkles. Partly sunny.3 mph94%29.92 "Hg6 mi
2:50 PM59 °FSprinkles. Partly sunny.3 mph88%29.92 "HgN/A
2:20 PM57 °FSprinkles. Scattered clouds.2 mph94%29.92 "HgN/A
1:50 PM57 °FPartly sunny.3 mph94%29.92 "HgN/A
1:20 PM57 °FSprinkles. Partly sunny.5 mph94%29.92 "Hg5 mi
12:50 PM57 °FOvercast.3 mph94%29.92 "HgN/A
12:20 PM57 °FPartly sunny.5 mph94%29.92 "HgN/A
11:50 AM57 °FPartly sunny.7 mph94%29.92 "Hg6 mi
11:20 AM57 °FLight rain. Partly sunny.7 mph94%29.92 "Hg6 mi
10:50 AM57 °FLight rain. Partly sunny.5 mph88%29.92 "Hg6 mi
10:20 AM57 °FPassing clouds.6 mph88%29.92 "Hg5 mi
9:50 AM57 °FScattered clouds.7 mph88%29.92 "Hg4 mi
9:20 AM55 °FPassing clouds.6 mph94%29.92 "Hg4 mi
8:50 AM55 °FPassing clouds.6 mph94%29.92 "Hg4 mi
8:20 AM54 °FFog.3 mph100%29.89 "Hg3 mi
7:50 AM54 °FLight rain. Passing clouds.3 mph94%29.89 "Hg3 mi
7:20 AM54 °FLight rain. Passing clouds.3 mph94%29.89 "Hg3 mi
6:50 AM54 °FLight rain. Passing clouds.5 mph94%29.89 "Hg3 mi
6:20 AM54 °FLight rain. Passing clouds.7 mph94%29.86 "Hg3 mi
5:50 AM54 °FSprinkles. Overcast.6 mph94%29.86 "Hg3 mi
5:20 AM52 °FSprinkles. Passing clouds.7 mph100%29.86 "Hg3 mi
Weather by CustomWeather, © 2014

See weather overviewHow to use our weather pages